#timestamp,LO_Frequency,Hit,StdDev 
1704207615.3,286046999.8,N
1704207635.1,286047001.8,N
1704207655.8,286047004.4,Y
1704207675.7,286047001.9,P
1704207695.5,286046998.9,N
1704207715.4,286046999.6,N
1704207735.2,286047000.8,N
1704207755.0,286046998.4,N
1704207755.9,286046998.4,N
1704207775.8,286046996.9,N
1704207795.6,286046999.6,N
1704207815.5,286046998.3,N
1704207835.3,286046998.2,N
1704207855.1,286047000.8,N
1704207875.9,286046997.8,N
1704207895.7,286046994.9,Y
1704207915.5,286046997.4,P
1704207935.4,286046997.5,N
1704207955.2,286046995.8,P
1704207975.1,286046993.3,Y
1704207976.0,286046993.3,P
1704207995.8,286046997.7,N
1704208015.6,286046995.0,N
1704208035.5,286046994.9,N
1704208055.3,286046995.3,N
1704208075.1,286046996.2,N
1704208095.9,286046996.1,N
1704208115.7,286046995.6,Y
1704208135.6,286046999.9,P
1704208155.4,286046998.4,N
1704208175.2,286046998.4,N
1704208195.1,286046999.6,N
1704208196.0,286046999.6,N
1704208215.8,286046998.1,N
1704208235.7,286046999.1,N
1704208255.5,286046999.6,N
1704208275.3,286046999.0,N
1704208295.2,286046999.3,N
1704208315.0,286047000.0,N
1704208315.9,286047000.0,N
1704208335.7,286047001.6,N
1704208355.6,286047002.0,N
1704208375.4,286047002.1,N
1704208395.3,286047001.6,N
1704208415.1,286047002.0,N
1704208416.0,286047002.0,N
1704208435.8,286046999.9,N
1704208455.7,286047001.2,N
1704208475.5,286047000.4,N
1704208495.3,286047001.5,N
1704208515.2,286047002.5,N
1704208535.0,286047001.9,N
1704208535.9,286047001.9,N
1704208555.8,286047002.2,N
1704208575.6,286047001.0,N
1704208595.4,286046998.4,N
1704208615.3,286046998.5,N
1704208635.1,286046998.8,N
1704208655.9,286046999.3,N
1704208675.7,286046996.6,N
1704208695.5,286046996.5,N
1704208715.4,286046998.0,N
1704208735.2,286046994.9,Y
1704208755.0,286046995.6,P
1704208755.9,286046995.6,N
1704208775.8,286046994.9,N
1704208795.6,286046995.7,N
1704208815.5,286046997.1,N
1704208835.3,286046997.7,N
1704208855.1,286046995.1,N
1704208875.9,286046996.9,N
1704208895.7,286046999.2,N
1704208915.6,286046998.3,N
1704208935.4,286047001.1,N
1704208955.2,286046999.4,N
1704208975.1,286046996.8,N
1704208976.0,286046996.8,N
1704208995.8,286046997.4,N
1704209015.6,286046997.8,N
1704209035.5,286046995.2,N
1704209055.3,286046995.5,N
1704209075.2,286046993.7,Y
1704209095.0,286046997.3,P
1704209095.9,286046997.3,P
1704209115.7,286046997.3,P
1704209135.6,286046998.2,Y
1704209155.4,286047002.2,P
1704209175.3,286047000.1,N
1704209195.1,286046998.6,N
1704209215.8,286046996.5,N
1704209235.7,286046997.7,N
1704209255.5,286046995.8,N
1704209275.4,286046995.5,N
1704209295.2,286046993.8,N
1704209315.0,286046992.3,Y
1704209315.9,286046992.3,P
1704209335.8,286046995.7,N
1704209355.6,286046995.8,N
1704209375.5,286046996.0,N
1704209395.3,286046993.6,Y
1704209415.1,286046999.6,P
1704209435.9,286046997.2,N
1704209455.7,286046997.0,N
1704209475.6,286046997.0,N
1704209495.4,286046997.4,N
1704209515.2,286046997.7,N
1704209535.1,286046995.2,Y
1704209536.0,286046995.2,P
1704209555.8,286046999.5,N
1704209575.7,286046996.5,N
1704209595.5,286046999.6,N
1704209615.3,286046996.5,N
1704209635.2,286046999.4,N
1704209655.0,286046999.4,N
1704209655.9,286046999.4,N
1704209675.7,286046997.1,N
1704209695.6,286046997.2,N
1704209715.4,286046997.2,N
1704209735.3,286046997.6,N
1704209755.1,286046998.0,N
1704209775.8,286046997.9,N
1704209795.7,286046995.4,Y
1704209815.5,286046999.1,P
1704209835.4,286046998.8,N
1704209855.2,286046998.7,N
1704209875.0,286046999.6,N
1704209875.9,286046999.6,N
1704209895.8,286046996.5,Y
1704209915.6,286047000.8,P
1704209935.4,286047000.5,N
1704209955.3,286047000.9,N
1704209975.1,286047000.8,N
1704209995.9,286046999.4,N
1704210015.7,286046997.2,Y
1704210035.5,286046995.7,P
1704210055.4,286046995.3,N
1704210075.2,286046995.8,N
1704210095.1,286046995.2,N
1704210096.0,286046995.2,N
1704210115.8,286046995.5,N
1704210135.6,286046993.3,Y
1704210155.5,286046997.0,P
1704210175.3,286046996.6,P
1704210195.1,286046998.7,P
1704210215.9,286046999.0,N
1704210235.7,286046999.2,N
1704210255.6,286046998.9,N
1704210275.4,286046998.8,N
1704210295.2,286046999.1,N
1704210315.1,286046998.5,N
1704210316.0,286046998.5,N
1704210335.8,286046998.3,N
1704210355.6,286046999.4,N
1704210375.5,286046999.3,N
1704210395.3,286046998.5,N
1704210415.2,286047000.8,N
1704210435.9,286047001.1,N
1704210455.7,286046998.3,N
1704210475.6,286046998.3,N
1704210495.4,286047000.8,N
1704210515.2,286047000.7,N
1704210535.1,286046999.9,N
1704210536.0,286046999.9,N
1704210555.8,286046998.7,N
1704210575.7,286047001.2,N
1704210595.5,286046998.6,N
1704210615.3,286047000.2,N
1704210635.2,286047001.5,N
1704210655.0,286047004.0,Y
1704210655.9,286047004.0,P
1704210675.7,286047006.0,N
1704210695.6,286047003.6,N
1704210715.4,286047003.4,N
1704210735.3,286047003.0,N
1704210755.1,286047004.3,N
1704210775.8,286047004.0,N
1704210795.7,286047002.2,N
1704210815.5,286047000.2,N
1704210835.4,286047000.1,N
1704210855.2,286047000.6,N
1704210875.0,286047000.7,N
1704210875.9,286047000.7,N
1704210895.8,286047000.3,N
1704210915.6,286047011.9,Y
1704210935.5,286046997.0,P
1704210955.3,286046999.1,N
1704210975.1,286047000.4,N
1704210995.9,286046999.9,N
1704211015.7,286047000.9,N
1704211035.5,286046998.3,N
1704211055.4,286047001.0,N
1704211075.2,286047002.0,N
1704211095.1,286047001.4,N
1704211096.0,286047001.4,N
1704211115.8,286047002.5,N
1704211135.6,286047004.1,N
1704211155.5,286047003.6,N
1704211175.3,286047002.6,N
1704211195.1,286046998.2,N
